Hourly Data Report for February 08, 2002

SHERBROOKE A
QUEBEC

45°26'00.000" N
71°41'00.000" W
241.40 m
7028124
71610
YSC

Download Data

Hourly Data (February 2002)
Hourly Data Report for February 8, 2002
TIME
LST
Temp Definition
°C
Dew Point Definition
°C
Rel Hum Definition
%
Precip. Amount Definition
mm

Wind Dir Definition
10's deg

Wind Spd Definition
km/h
Visibility Definition
km
Stn Press Definition
kPa
Hmdx Definition


Wind Chill Definition


Weather Definition


00:00 -0.9 -3.2 84   22 7 2.9 97.53   -3 Snow
01:00 -0.6 -2.7 86   25 11 1.6 97.53   -4 Snow
02:00 -0.2 -2.9 82   26 20 8.0 97.58   -5  
03:00 -0.5 -3.3 81   27 17 6.4 97.64   -5 Snow
04:00 -1.0 -5.4 72   28 22 15.0 97.70   -7 Snow
05:00 -1.8 -6.2 72   27 26 15.0 97.81   -8  
06:00 -3.6 -8.5 69   28 26 15.0 97.94   -11 Snow
07:00 -5.5 -11.0 65   29 28 15.0 98.09   -13  
08:00 -6.7 -11.9 66   28 19 2.4 98.25   -14 Snow Showers
09:00 -7.3 -12.8 65   27 20 12.9 98.30   -14 Snow Showers
10:00 -7.5 -13.4 63   29 19 19.3 98.35   -15 Snow Showers
11:00 -7.5 -14.0 60   27 20 24.1 98.40   -15 Mainly Clear
12:00 -6.9 -13.6 59   28 24 24.1 98.39   -15 Mainly Clear
13:00 -6.2 -13.3 57   27 19 24.1 98.38   -13 Mainly Clear
14:00 -5.9 -13.5 55   26 20 24.1 98.39   -13 Mainly Clear
15:00 -6.4 -13.8 56   27 19 24.1 98.40   -13 Mainly Clear
16:00 -6.8 -14.8 53   27 13 24.1 98.43   -12 Mostly Cloudy
17:00 -8.0 -15.2 56   29 13 24.1 98.56   -14 Mainly Clear
18:00 -9.5 -16.0 59   28 11 15.0 98.70   -15  
19:00 -10.7 -16.6 62   28 11 15.0 98.84   -16  
20:00 -12.1 -17.3 65   28 11 15.0 98.98   -18  
21:00 -15.2 -18.8 74   22 6 15.0 99.04   -19  
22:00 -13.9 -17.8 72   25 6 15.0 99.12   -18  
23:00 -13.9 -17.9 72   27 6 15.0 99.21   -18  

Notes on Data Quality.

Legend

  • E = Estimated
  • M = Missing
  • NA = Not Available*
  • [empty] = Indicates an unobserved value
Date modified: